Flag for Greenland Weather past 2 weeks in Ittoqqortoormiit, Greenland

Now
17 °F

Light snow. Ice fog.


Feels Like: 9 °F
Forecast: -6 / 26 °F
Wind: 5 mph from Southeast

Location: Scoresbysund

Current Time: Jan 27, 2015 at 4:26:32 PM

Latest Report: Jan 27, 2015 at 3:00 PM


Visibility: 2 mi

Pressure: 29.15 "Hg

Humidity: 97%

Dew point: 16 °F

Location of IttoqqortoormiitLocation

Historic Weather in Ittoqqortoormiit — Graph

°F

Ittoqqortoormiit temperature yesterday

Maximum temperature yesterday: 22 °F (at 12:00 PM)
Minimum temperature yesterday: 11 °F (at 12:00 AM)
Average temperature yesterday: 18 °F

Past Weeks' High & Low Weather Summary

 TemperatureHumidityPressure
High26 °F (Jan 12, 5:00 PM)99% (Jan 21, 4:00 AM)30.35 "Hg (Jan 21, 4:00 AM)
Low2 °F (Jan 18, 4:00 AM)34% (Jan 18, 9:00 AM)29.06 "Hg (Jan 23, 4:00 AM)
Average15 °F77%29.53 "Hg
* Reported Jan 12 3:00 PM — Jan 27 3:00 PM, Ittoqqortoormiit, Weather by CustomWeather, © 2014

Note: Actual official high and low records may vary slightly from our data, if they occured in-between our weather recording intervals... More about our weather records

Advertising

Ittoqqortoormiit weather history for previous 24 hours

 ConditionsComfort  
Time TempWeatherWind HumidityBarometerVisibility
3:00 PM
Jan 27
17 °FLight snow. Ice fog.5 mph97%29.15 "Hg2 mi
2:00 PM15 °FLight snow. Ice fog.5 mph95%29.18 "Hg1 mi
11:00 AM15 °FLight snow. Low clouds.6 mph89%29.23 "Hg2 mi
10:00 AM15 °FFog.7 mph82%29.23 "Hg5 mi
9:00 AM15 °FSprinkles. Overcast.3 mph73%29.23 "Hg25 mi
8:00 AM14 °FSnow flurries. Overcast.10 mph74%29.23 "Hg31 mi
7:00 AM14 °FOvercast.9 mph78%29.26 "Hg31 mi
6:00 AM16 °FOvercast.1 mph51%29.26 "Hg31 mi
5:00 AM16 °FOvercast.2 mph51%29.26 "Hg31 mi
4:00 AM16 °FPassing clouds.2 mph51%29.26 "Hg31 mi
3:00 AM13 °FPassing clouds.3 mph51%29.29 "Hg31 mi
2:00 AM16 °FClear.5 mph45%29.29 "Hg31 mi
1:00 AM15 °FClear.3 mph45%29.29 "Hg31 mi
12:00 AM17 °FClear.9 mph44%29.26 "Hg31 mi
11:00 PM
Jan 26
16 °FPassing clouds.6 mph45%29.23 "Hg31 mi
10:00 PM18 °FPassing clouds.6 mph40%29.23 "Hg31 mi
9:00 PM16 °FClear.8 mph44%29.23 "Hg31 mi
8:00 PM17 °FClear.9 mph44%29.23 "Hg31 mi
7:00 PM18 °FClear.6 mph39%29.21 "Hg31 mi
6:00 PM18 °FClear.6 mph40%29.21 "Hg31 mi
5:00 PM20 °FClear.3 mph40%29.18 "Hg31 mi
4:00 PM17 °FClear.6 mph47%29.18 "Hg31 mi
Weather by CustomWeather, © 2014

See weather overviewHow to use our weather pages